Regional Weather Roundup
Issued by NWS

Home | Current Version | Previous Version | Text Only | Print | Product List | Glossary On
Versions: 1 2 3 4 5 6 7 8 9 10 11 12 13 14 15 16 17 18 19 20 21 22 23 24 25 26 27 28 29 30 31 32 33 34 35 36 37 38 39 40 41 42 43 44 45 46 47 48 49 50
000
ASUS43 KLSX 210557
RWRMO

WEATHER SUMMARY FOR MISSOURI
NATIONAL WEATHER SERVICE SPRINGFIELD MO
1200 AM CST SAT JAN 21 2017

NOTE: "FAIR" INDICATES FEW OR NO CLOUDS BELOW 12,000 FEET WITH NO
       SIGNIFICANT WEATHER AND/OR OBSTRUCTIONS TO VISIBILITY.
       CURRENT SKY AND/OR WEATHER CONDITIONS ARE NOT AVAILABLE FOR
       CHILLICOTHE AND FARMINGTON.

MOZ001>031-035>038-043-044-053-054-210700-
...NORTHERN AND WESTERN MISSOURI...

CITY           SKY/WX    TMP DP  RH WIND       PRES   REMARKS
KANSAS CTY INT CLEAR     39  37  92 S7        29.43F
6HR MIN TEMP:  38; 6HR MAX TEMP:  50; 6HR PCP: TRACE;

LEE`S SUMMIT   CLEAR     45  44  97 SE8       29.45F FOG
6HR MIN TEMP:  43; 6HR MAX TEMP:  52;

ST JOSEPH      FOG       37  37 100 CALM      29.42F VSB 1/4
6HR MIN TEMP:  36; 6HR MAX TEMP:  47; 6HR PCP:  0.03;

CHILLICOTHE      N/A     46  46 100 SE7       29.46F
6HR MIN TEMP:  46; 6HR MAX TEMP:  48;


$$
MOZ066>068-077>081-088>096-101>105-210700-
...SOUTHWEST MISSOURI...

CITY           SKY/WX    TMP DP  RH WIND       PRES   REMARKS
SPRINGFIELD    CLEAR     51  38  60 S15       29.54S
6HR MIN TEMP:  51; 6HR MAX TEMP:  59;

JOPLIN         CLEAR     56  39  53 S16G28    29.51S
6HR MIN TEMP:  49; 6HR MAX TEMP:  60;


$$
MOZ032>034-039>042-045>050-055>058-069>072-210700-
...CENTRAL MISSOURI...

CITY           SKY/WX    TMP DP  RH WIND       PRES   REMARKS
COLUMBIA       NOT AVBL
JEFFERSON CITY CLEAR     47  43  86 E8        29.52F
6HR MIN TEMP:  42; 6HR MAX TEMP:  53;

ROLLA          CLEAR     53  46  77 S13       29.55S
6HR MIN TEMP:  51; 6HR MAX TEMP:  54;

SEDALIA        PTCLDY    50  40  68 SW8       29.49S
6HR MIN TEMP:  42; 6HR MAX TEMP:  52;

WARRENSBURG    PTCLDY    41  37  87 SE7       29.47F

$$
MOZ051-052-059>065-210700-
...EAST CENTRAL MISSOURI...

CITY           SKY/WX    TMP DP  RH WIND       PRES   REMARKS
ST LOUIS INTL  PTCLDY    53  49  86 S7        29.59S
6HR MIN TEMP:  49; 6HR MAX TEMP:  55;


$$
MOZ072>076-082>087-097>100-106>115-210700-
...SOUTH CENTRAL AND SOUTHEAST MISSOURI...

CITY           SKY/WX    TMP DP  RH WIND       PRES   REMARKS
CAPE GIRARDEAU MOCLDY    55  51  86 S14       29.66S
6HR MIN TEMP:  50; 6HR MAX TEMP:  57;

POPLAR BLUFF   MOCLDY    53  51  93 SW6       29.67R
6HR MIN TEMP:  53; 6HR MAX TEMP:  58;

WEST PLAINS    CLEAR     52  45  77 S8        29.63S
6HR MIN TEMP:  52; 6HR MAX TEMP:  58;


$$



USA.gov is the U.S. government's official web portal to all federal, state and local government web resources and services.